Terug naar catalogus

FENGYUN 1C DEB

ActiefPO
NORAD 30345·DEBRIS·🇨🇳 China

Gelanceerd May 10, 1999 vanaf Taiyuan Satellite Launch Center

Loading…

Volgende Passages (komende 24 uur)

TLE

VersSource: Space-Track

Epoch: Sep 13, 2026, 04:02 UTC

1 30345U 99025ABG 26256.16820763  .00003419  00000-0  99809-3 0  9999
2 30345  98.9066 333.1703 0017988 149.7452 210.4780 14.44675974 17337

Volg FENGYUN 1C DEB in realtime met AllMySat

Download on the App Store